Sigfox identifier Datetime Temperature Humidity SNR
003B89DA 2018-10-09 08:41:54 21.1 38 13.6
003B89DA 2018-10-09 05:23:22 21 38 13.6
003B89DA 2018-10-09 02:04:49 21 38 13.7
003B89DA 2018-10-09 00:58:40 21 38 13.6
003B89DA 2018-10-08 23:52:35 21 38 13.4
003B89DA 2018-10-08 22:46:27 21.1 38 13.4
003B89DA 2018-10-08 21:40:21 21 37 13.5
003B89DA 2018-10-08 20:34:11 21 37 13.5
003B89DA 2018-10-08 19:28:00 21 37 13.7
003B89DA 2018-10-08 18:21:52 21 37 13.7
003B89DA 2018-10-08 17:15:44 20.9 37 13.8
003B89DA 2018-10-08 16:09:35 20.8 37 13.8
003B89DA 2018-10-08 10:38:59 20.7 38 13.3
003B89DA 2018-10-08 08:26:38 20.8 38 13.2
003B89DA 2018-10-08 07:20:30 20.8 38 13.6
003B89DA 2018-10-08 06:14:19 20.8 38 13.5
003B89DA 2018-10-08 05:08:08 20.8 38 13.5
003B89DA 2018-10-08 04:02:01 20.8 38 13.1
003B89DA 2018-10-08 02:55:47 20.8 39 12.7
003B89DA 2018-10-08 01:49:36 20.8 39 12.7
003B89DA 2018-10-08 00:43:27 20.8 39 13
003B89DA 2018-10-07 23:37:14 20.9 39 12.8
003B89DA 2018-10-07 22:31:07 20.9 39 12.8
003B89DA 2018-10-07 21:25:00 20.9 39 12.8
003B89DA 2018-10-07 20:18:49 21 39 17.7
003B89DA 2018-10-07 19:12:41 21 39 17.8
003B89DA 2018-10-07 18:06:35 21 39 17.9
003B89DA 2018-10-07 17:00:28 21 39 17.8
003B89DA 2018-10-07 15:54:14 21 39 17.9
003B89DA 2018-10-07 14:48:06 21 39 18
003B89DA 2018-10-07 13:42:03 21 39 18
003B89DA 2018-10-07 12:36:00 21 39 17.9
003B89DA 2018-10-07 11:29:51 21.1 39 18
003B89DA 2018-10-07 10:23:40 21 39 17.9
003B89DA 2018-10-07 09:17:33 21 39 18.1
003B89DA 2018-10-07 08:11:22 21 39 18
003B89DA 2018-10-07 07:05:13 21 39 18.2
003B89DA 2018-10-07 05:59:05 21 39 18.3
003B89DA 2018-10-07 04:52:55 21.1 39 18.3
003B89DA 2018-10-07 03:46:44 21.1 39 18.3
003B89DA 2018-10-07 02:40:33 21.2 39 18.3
003B89DA 2018-10-07 01:34:20 21.2 39 18.4
003B89DA 2018-10-07 00:28:14 21.3 39 18.4
003B89DA 2018-10-06 23:21:57 21.3 40 18.4
003B89DA 2018-10-06 22:15:47 21.3 40 18.4
003B89DA 2018-10-06 21:09:35 21.2 40 18.4
003B89DA 2018-10-06 20:03:26 21.3 40 18.4
003B89DA 2018-10-06 18:57:15 21.3 40 18.3
003B89DA 2018-10-06 17:51:05 21.3 40 18.4
003B89DA 2018-10-06 16:44:55 21.3 40 14.7
003B89DA 2018-10-06 15:38:44 21.3 40 14.5
003B89DA 2018-10-06 13:26:27 21.3 40 14.3
003B89DA 2018-10-06 12:20:18 21.3 40 14.3
003B89DA 2018-10-06 11:14:06 21.3 40 14.1
003B89DA 2018-10-06 10:07:58 21.3 40 13.8
003B89DA 2018-10-06 09:01:45 21.3 40 13.7
003B89DA 2018-10-06 07:55:36 21.4 40 13.7
003B89DA 2018-10-06 06:49:26 21.4 40 13.5
003B89DA 2018-10-06 05:43:17 21.5 40 13.4
003B89DA 2018-10-06 04:37:10 21.5 40 13
003B89DA 2018-10-06 03:31:01 21.5 40 17.7
003B89DA 2018-10-06 02:24:51 21.5 40 17.7
003B89DA 2018-10-06 01:18:40 21.5 40 17.6
003B89DA 2018-10-06 00:12:26 21.5 40 17.8
003B89DA 2018-10-05 23:06:13 21.5 40 17.9
003B89DA 2018-10-05 21:59:58 21.5 40 18.2
003B89DA 2018-10-05 20:53:46 21.6 40 18.2
003B89DA 2018-10-05 19:47:32 21.6 39 18.3
003B89DA 2018-10-05 18:41:18 21.6 39 18.5
003B89DA 2018-10-05 17:35:04 21.5 39 18.4
003B89DA 2018-10-05 16:28:50 21.5 38 18.5
003B89DA 2018-10-05 15:22:39 21.5 38 18.8
003B89DA 2018-10-05 13:10:09 21.4 38 19.3
003B89DA 2018-10-05 12:03:56 21.4 39 19.8
003B89DA 2018-10-05 08:45:12 21 32 20.1
003B89DA 2018-10-05 07:38:57 21 31 20.3
003B89DA 2018-10-05 06:32:41 21 31 20.7
003B89DA 2018-10-05 05:26:24 21 31 20.7
003B89DA 2018-10-05 04:20:08 21 31 21.1
003B89DA 2018-10-05 03:13:57 21 31 21.2
003B89DA 2018-10-05 01:01:28 21 31 21.5
003B89DA 2018-10-04 23:55:14 21.1 31 22.1
003B89DA 2018-10-04 22:49:02 21.1 31 22.1
003B89DA 2018-10-04 21:42:52 21.2 31 22.3
003B89DA 2018-10-04 20:36:41 21.2 31 22.3
003B89DA 2018-10-04 18:24:16 21.2 31 21.2
003B89DA 2018-10-04 15:05:37 21.1 29 21.1
003B89DA 2018-10-04 13:59:21 21 29 21.3
003B89DA 2018-10-04 12:53:09 21 29 21.2
003B89DA 2018-10-04 11:46:57 20.8 31 21.2
003B89DA 2018-10-04 10:40:44 20.8 32 21.4
003B89DA 2018-10-04 09:34:33 20.6 33 21.5
003B89DA 2018-10-04 08:28:18 20.4 32 21.6
003B89DA 2018-10-04 07:22:05 20.4 34 21.6
003B89DA 2018-10-04 06:15:49 20.6 35 21.7
003B89DA 2018-10-04 05:09:37 20.6 36 21.7
003B89DA 2018-10-04 04:03:24 20.6 37 21.7
003B89DA 2018-10-04 02:57:12 20.6 37 21.7
003B89DA 2018-10-04 01:50:59 20.6 37 21.4
003B89DA 2018-10-04 00:44:44 20.6 38 21.3
003B89DA 2018-10-03 23:38:31 20.7 39 21.2
003B89DA 2018-10-03 22:32:15 20.8 39 21.1
003B89DA 2018-10-03 21:25:59 20.8 39 21.1
003B89DA 2018-10-03 20:19:44 20.8 40 20.8
003B89DA 2018-10-03 19:13:27 20.9 40 21
003B89DA 2018-10-03 18:07:14 20.8 40 20.8
003B89DA 2018-10-03 17:01:02 21 43 20
003B89DA 2018-10-03 15:54:49 20.9 44 20
003B89DA 2018-10-03 14:48:34 20.9 44 19.6
003B89DA 2018-10-03 13:42:19 20.8 42 19.7
003B89DA 2018-10-03 12:36:02 20.8 40 19.8
003B89DA 2018-10-03 11:29:46 20.8 41 20
003B89DA 2018-10-03 10:23:29 20.6 41 19.9
003B89DA 2018-10-03 08:11:00 20.4 38 20.1
003B89DA 2018-10-03 07:04:42 20.6 39 20.2
003B89DA 2018-10-03 05:58:27 20.6 39 19.6
003B89DA 2018-10-03 04:52:09 20.6 40 19.6
003B89DA 2018-10-03 03:45:51 20.6 40 19.5
003B89DA 2018-10-03 02:39:31 20.6 40 19.4
003B89DA 2018-10-03 01:33:14 20.7 41 19.5
003B89DA 2018-10-03 00:26:57 20.7 41 19.5
003B89DA 2018-10-02 23:20:41 20.8 40 19.2
003B89DA 2018-10-02 22:14:26 20.8 40 18.7
003B89DA 2018-10-02 21:08:12 20.8 40 18.6
003B89DA 2018-10-02 20:01:56 20.8 40 18.8
003B89DA 2018-10-02 18:55:41 20.8 39 19
003B89DA 2018-10-02 17:49:26 21 39 17.7
003B89DA 2018-10-02 16:43:10 21 41 18
003B89DA 2018-10-02 15:36:55 21 39 17.9
003B89DA 2018-10-02 14:30:38 21 38 14.1
003B89DA 2018-10-02 13:24:26 20.9 40 13.7
003B89DA 2018-10-02 12:18:05 21 43 14.5
003B89DA 2018-10-02 11:11:49 20.8 44 15.7
003B89DA 2018-10-02 10:05:36 20.8 43 17.5
003B89DA 2018-10-02 08:59:18 20.6 51 0